Regional Weather Roundup
Issued by NWS

Home | Current Version | Previous Version | Text Only | Print | Product List | Glossary On
Versions: 1 2 3 4 5 6 7 8 9 10 11 12 13 14 15 16 17 18 19 20 21 22 23 24 25 26 27 28 29 30 31 32 33 34 35 36 37 38 39 40 41 42 43 44 45 46 47 48 49 50
000
ASUS43 KBIS 201231
RWRND
NORTH DAKOTA REGIONAL WEATHER ROUNDUP
NATIONAL WEATHER SERVICE EASTERN NORTH DAKOTA/GRAND FORKS ND
700 AM CDT SUN MAY 20 2018

  NOTE: "FAIR" INDICATES FEW OR NO CLOUDS BELOW 12,000 FEET WITH NO
  SIGNIFICANT WEATHER AND/OR OBSTRUCTIONS TO VISIBILITY.

NDZ001>003-009>011-017-201300-
...NORTHWEST NORTH DAKOTA...

CITY           SKY/WX    TMP DP  RH WIND       PRES   REMARKS
WILLISTON      FAIR      36  32  85 CALM      30.24S
6HR MIN TEMP:  31; 6HR MAX TEMP:  45;

MINOT          FAIR      45  32  60 SW7       30.25R
MINOT AFB      FAIR      40  32  71 CALM      30.23S
6HR MIN TEMP:  37; 6HR MAX TEMP:  48;

$$

NDZ018>021-031>035-040>046-201300-
...SOUTHWEST NORTH DAKOTA...

CITY           SKY/WX    TMP DP  RH WIND       PRES   REMARKS
BISMARCK       FAIR      39  37  92 CALM      30.29R
DICKINSON      FAIR      36  32  85 S7        30.24S WCI  30
GARRISON         N/A     38  31  76 CALM      30.27R
HETTINGER      FAIR      30  27  88 CALM      30.27S
$$

NDZ004>008-012>016-024-026-027-054-201300-
...NORTHEAST NORTH DAKOTA...

CITY           SKY/WX    TMP DP  RH WIND       PRES   REMARKS
GRAND FORKS    FAIR      38  38 100 S6        30.25R WCI  33
GRAND FORKS AF FAIR      43  40  88 SW5       30.24R
DEVILS LAKE    FAIR      47  43  86 SW5       30.26R
$$

NDZ022-023-025-028>030-036>039-047>053-201300-
...SOUTHEAST NORTH DAKOTA...

CITY           SKY/WX    TMP DP  RH WIND       PRES   REMARKS
JAMESTOWN      FAIR      40  38  93 CALM      30.26R
FARGO          FAIR      41  37  86 CALM      30.26R
WAHPETON       FAIR      46  34  61 E5        30.27R
$$



USA.gov is the U.S. government's official web portal to all federal, state and local government web resources and services.